Regional Weather Roundup
Issued by NWS

Home | Current Version | Previous Version | Graphics & Text | Print | Product List | Glossary On
Versions: 1 2 3 4 5 6 7 8 9 10 11 12 13 14 15 16 17 18 19 20 21 22 23 24 25 26 27 28 29 30 31 32 33 34 35 36 37 38 39 40 41 42 43 44 45 46 47 48 49 50
000
ASUS43 KOAX 250902
RWRNE

WEATHER ROUNDUP FOR NEBRASKA
NATIONAL WEATHER SERVICE OMAHA NE
400 AM CDT WED APR 25 2018

NOTES: SATELLITE DATA IS BEING USED TO AUGMENT CLOUD COVER ABOVE
       12000 FEET.
       "FAIR" INDICATES FEW OR NO CLOUDS BELOW 12,000 FEET WITH NO
       SIGNIFICANT WEATHER AND/OR OBSTRUCTIONS TO VISIBILITY.


NEZ001>004-019>022-054>056-251000-
NEBRASKA PANHANDLE

CITY           SKY/WX    TMP DP  RH WIND       PRES   REMARKS
SCOTTSBLUFF    CLEAR     27  26  96 CALM      30.38F
ALLIANCE       CLOUDY    27  27 100 W7        30.36F WCI  19
CHADRON        CLEAR     26  23  88 SW5       30.38F WCI  20
GORDON         FAIR      30  27  86 W5        30.35F WCI  25
KIMBALL        CLEAR     29  28  97 W6        30.37F WCI  23
SIDNEY         PTCLDY    27  26  96 W8        30.38F WCI  19
$$

NEZ057>060-069>072-079>082-251000-
SOUTHWEST NEBRASKA

CITY           SKY/WX    TMP DP  RH WIND       PRES   REMARKS
NORTH PLATTE   CLOUDY    38  34  85 NW7       30.35F WCI  33
IMPERIAL       CLOUDY    37  32  82 NW9       30.37F WCI  30
LEXINGTON      DRIZZLE   39  35  85 NW10      30.33S WCI  33
MCCOOK         CLOUDY    38  34  85 NW10      30.35S WCI  31
OGALLALA       CLOUDY    37  32  81 NW8       30.36F WCI  31
$$

NEZ005>010-023>029-035>040-094-251000-
NORTH CENTRAL NEBRASKA

CITY           SKY/WX    TMP DP  RH WIND       PRES   REMARKS
VALENTINE      PTCLDY    35  31  85 NW9       30.35F WCI  28
AINSWORTH      CLOUDY    38  36  90 NW7       30.34S WCI  33
BROKEN BOW     LGT RAIN  40  35  83 NW14      30.31F WCI  32
O`NEILL        MOCLDY    40  38  93 NW8       30.32F
ORD            CLOUDY    40  38  93 NW10      30.30F WCI  33
THEDFORD       CLOUDY    37  34  87 NW3       30.35S
$$

NEZ041-046>049-061>064-073>077-083>087-251000-
SOUTH CENTRAL NEBRASKA

CITY           SKY/WX    TMP DP  RH WIND       PRES   REMARKS
GRAND ISLAND   CLOUDY    42  38  85 N17       30.29S
AURORA         LGT RAIN  41  40  95 N18       30.27S
HASTINGS       LGT RAIN  40  40 100 N16       30.28F FOG     WCI  31
HEBRON         LGT RAIN  44  42  95 N10G17    30.24S
HOLDREGE       CLOUDY    39  38  96 N13       30.30S WCI  31
KEARNEY        CLOUDY    40  37  89 N10       30.31R WCI  33
YORK           MIX PCPN  41  41 100 N21G28    30.26F
$$

NEZ011>018-030>034-042>045-251000-
NORTHEAST NEBRASKA

CITY           SKY/WX    TMP DP  RH WIND       PRES   REMARKS
NORFOLK        LGT RAIN  40  37  89 N12       30.28S WCI  33
ALBION         CLOUDY    41  38  88 N12       30.29S
BLAIR          CLOUDY    45  43  93 N12       30.20S
COLUMBUS       CLOUDY    43  39  86 N15       30.28R
FREMONT        CLOUDY    46  42  86 N8        30.24R
TEKAMAH        CLOUDY    44  41  89 N14       30.22F
WAYNE          DRIZZLE   42  42  97 N12       30.27S
$$

NEZ050>053-065>068-078-088>093-251000-
SOUTHEAST NEBRASKA

CITY           SKY/WX    TMP DP  RH WIND       PRES   REMARKS
LINCOLN        CLOUDY    45  42  89 N16       30.25R
OMAHA EPPLEY   CLOUDY    46  43  89 N12       30.20F
BEATRICE       CLOUDY    47  47  97 N9        30.21R FOG
FALLS CITY     CLOUDY    50  44  80 N8        30.17S
NEBRASKA CITY  CLOUDY    48  47  97 N13       30.19S
PLATTSMOUTH    CLOUDY    47  43  84 N7        30.19S
$$

NEZ044-045-051>053-067-251000-
OMAHA AREA

CITY           SKY/WX    TMP DP  RH WIND       PRES   REMARKS
OMAHA EPPLEY   CLOUDY    46  43  89 N12       30.20F
BLAIR          CLOUDY    45  43  93 N12       30.20S
FREMONT        CLOUDY    46  42  86 N8        30.24R
MILLARD        CLOUDY    48  43  85 N5        30.21S
OFFUTT AFB     CLOUDY    47  43  88 N8        30.19F
PLATTSMOUTH    CLOUDY    47  43  84 N7        30.19S
WAHOO          CLOUDY    46  41  84 N12       30.23S
$$



USA.gov is the U.S. government's official web portal to all federal, state and local government web resources and services.